Flag for Portugal Weather past 2 weeks in Funchal, Madeira, Portugal

Now
68 °F

Passing clouds.


Feels Like: 68 °F
Forecast: 65 / 78 °F
Wind: 6 mph from North

Location: Aeroporto Da Madeira

Current Time: Jul 3, 2015 at 12:52:13 AM

Latest Report: Jul 3, 2015 at 12:30 AM


Visibility: N/A

Pressure: 30.21 "Hg

Humidity: 69%

Dew point: 57 °F

Location of FunchalLocation

Historic Weather in Funchal — Graph

°F

Funchal temperature yesterday

Maximum temperature yesterday: 77 °F (at 3:00 PM)
Minimum temperature yesterday: 66 °F (at 5:30 AM)
Average temperature yesterday: 71 °F

Past Weeks' High & Low Weather Summary

 TemperatureHumidityPressure
High77 °F (Jun 26, 2:30 PM)88% (Jun 26, 12:30 PM)30.24 "Hg (Jun 26, 12:30 PM)
Low63 °F (Jun 18, 4:00 AM)47% (Jul 1, 2:30 PM)30.01 "Hg (Jul 1, 5:30 AM)
Average70 °F71%30.15 "Hg
* Reported Midnight between Jun 17 and Jun 18 — Midnight between Jul 2 and Jul 3, Funchal, Weather by CustomWeather, © 2015

Note: Actual official high and low records may vary slightly from our data, if they occured in-between our weather recording intervals... More about our weather records

Advertising

Funchal weather history for previous 24 hours

 ConditionsComfort  
Time TempWeatherWind HumidityBarometerVisibility
12:00 AM
Fri, Jul 3
68 °FPassing clouds.3 mph69%30.21 "HgN/A
11:30 PM
Thu, Jul 2
68 °FPassing clouds.3 mph69%30.21 "HgN/A
11:00 PM68 °FPassing clouds.5 mph69%30.21 "HgN/A
10:30 PM68 °FPassing clouds.7 mph69%30.21 "HgN/A
10:00 PM70 °FPassing clouds.6 mph64%30.18 "HgN/A
9:30 PM70 °FPassing clouds.7 mph64%30.18 "HgN/A
9:00 PM70 °FPassing clouds.8 mph64%30.18 "HgN/A
8:30 PM70 °FPassing clouds.9 mph64%30.18 "HgN/A
8:00 PM72 °FScattered clouds.9 mph61%30.18 "HgN/A
7:30 PM72 °FScattered clouds.7 mph61%30.18 "HgN/A
7:00 PM72 °FScattered clouds.7 mph61%30.18 "HgN/A
6:30 PM72 °FScattered clouds.12 mph65%30.18 "HgN/A
6:00 PM72 °FScattered clouds.13 mph65%30.18 "HgN/A
5:30 PM73 °FPassing clouds.14 mph61%30.18 "HgN/A
5:00 PM73 °FPassing clouds.14 mph61%30.18 "HgN/A
4:30 PM73 °FPassing clouds.15 mph61%30.18 "HgN/A
4:00 PM73 °FPassing clouds.14 mph61%30.18 "HgN/A
3:30 PM73 °FPassing clouds.15 mph61%30.18 "HgN/A
3:00 PM77 °FPassing clouds.16 mph54%30.18 "HgN/A
2:30 PM73 °FPassing clouds.15 mph61%30.18 "HgN/A
2:00 PM73 °FPassing clouds.16 mph61%30.21 "HgN/A
1:30 PM73 °FPassing clouds.15 mph57%30.21 "HgN/A
1:00 PM75 °FPassing clouds.15 mph54%30.21 "HgN/A
12:30 PM75 °FPassing clouds.14 mph54%30.21 "HgN/A
12:00 PM72 °FScattered clouds.9 mph65%30.21 "HgN/A
11:30 AM73 °FScattered clouds.10 mph57%30.21 "HgN/A
11:00 AM73 °FPassing clouds.10 mph53%30.21 "HgN/A
10:30 AM73 °FPassing clouds.9 mph57%30.21 "HgN/A
10:00 AM72 °FPassing clouds.8 mph61%30.21 "HgN/A
9:30 AM72 °FPassing clouds.10 mph61%30.18 "HgN/A
9:00 AM70 °FPassing clouds.7 mph64%30.18 "HgN/A
8:30 AM70 °FPassing clouds.7 mph64%30.18 "HgN/A
8:00 AM68 °FPassing clouds.10 mph69%30.18 "HgN/A
7:30 AM66 °FPassing clouds.8 mph73%30.18 "HgN/A
7:00 AM66 °FPassing clouds.9 mph73%30.18 "HgN/A
6:30 AM66 °FPassing clouds.7 mph73%30.18 "HgN/A
6:00 AM66 °FPassing clouds.8 mph73%30.18 "HgN/A
5:30 AM66 °FPassing clouds.7 mph73%30.18 "HgN/A
5:00 AM68 °FPassing clouds.7 mph69%30.18 "HgN/A
4:30 AM68 °FPassing clouds.7 mph73%30.18 "HgN/A
4:00 AM68 °FPassing clouds.7 mph73%30.18 "HgN/A
3:30 AM68 °FPassing clouds.5 mph73%30.18 "HgN/A
3:00 AM68 °FPassing clouds.6 mph69%30.18 "HgN/A
2:30 AM68 °FPassing clouds.8 mph69%30.21 "HgN/A
2:00 AM68 °FPassing clouds.9 mph73%30.21 "HgN/A
1:30 AM70 °FPassing clouds.6 mph69%30.21 "HgN/A
1:00 AM70 °FPassing clouds.8 mph69%30.21 "HgN/A
12:30 AM70 °FPassing clouds.8 mph64%30.21 "HgN/A
12:00 AM70 °FPassing clouds.8 mph64%30.21 "HgN/A
Weather by CustomWeather, © 2015

See weather overviewHow to use our weather pages